When you browse on this site, cookies collect data to enhance your experience and personalize the content and advertising you see.
Visit our Privacy Policy to learn more. By continuing to use the site, you agree to this use of cookies and data.
  • In France
  • List of Countries
  • For 7 days
  • Water Temperature
  • Weather Map
  • Weather Widgets
  • user-avatar
    Login

    Hourly Weather White Center

    Today, 5 June, Friday

    Time Temperature Precipitation Wind Pressure Humidity
    00:00 +10°C° 0 mm 2 mps 757 mmHg 86%
    01:00 +10°C° 0 mm 2 mps 756 mmHg 87%
    02:00 +11°C° 0 mm 1 mps 756 mmHg 87%
    03:00 +10°C° 0 mm 1 mps 756 mmHg 87%
    04:00 +10°C° 0 mm 1 mps 755 mmHg 87%
    05:00 +11°C° 0 mm 1 mps 755 mmHg 82%
    06:00 +12°C° 0 mm 1 mps 755 mmHg 77%
    07:00 +14°C° 0 mm 1 mps 754 mmHg 72%
    08:00 +15°C° 0 mm 1 mps 754 mmHg 66%
    09:00 +18°C° 0 mm 1 mps 753 mmHg 59%
    10:00 +19°C° 0 mm 2 mps 753 mmHg 53%
    11:00 +21°C° 0 mm 1 mps 752 mmHg 50%
    12:00 +22°C° 0 mm 1 mps 752 mmHg 47%
    13:00 +23°C° 0 mm 1 mps 752 mmHg 44%
    14:00 +22°C° 0 mm 1 mps 752 mmHg 47%
    15:00 +21°C° 0 mm 2 mps 752 mmHg 49%
    16:00 +20°C° 0 mm 2 mps 752 mmHg 52%
    17:00 +18°C° 0.1 mm 2 mps 752 mmHg 58%
    18:00 +17°C° 0.1 mm 2 mps 752 mmHg 64%
    19:00 +15°C° 0.1 mm 2 mps 752 mmHg 69%
    20:00 +14°C° 0.1 mm 2 mps 752 mmHg 74%
    21:00 +13°C° 0.1 mm 2 mps 753 mmHg 79%
    22:00 +12°C° 0.1 mm 2 mps 753 mmHg 84%
    23:00 +10°C° 0 mm 2 mps 753 mmHg 86%

    Tomorrow, 6 June, Saturday

    Time Temperature Precipitation Wind Pressure Humidity
    00:00 +9°C° 0 mm 2 mps 753 mmHg 88%
    01:00 +9°C° 0 mm 2 mps 753 mmHg 90%
    02:00 +9°C° 0 mm 2 mps 754 mmHg 89%
    03:00 +9°C° 0 mm 2 mps 754 mmHg 89%
    04:00 +9°C° 0 mm 2 mps 754 mmHg 88%
    05:00 +9°C° 0 mm 2 mps 754 mmHg 86%
    06:00 +10°C° 0 mm 2 mps 754 mmHg 84%
    07:00 +12°C° 0 mm 2 mps 754 mmHg 81%
    08:00 +13°C° 0.3 mm 2 mps 754 mmHg 78%
    09:00 +14°C° 0.3 mm 2 mps 754 mmHg 74%
    10:00 +15°C° 0.3 mm 2 mps 754 mmHg 71%
    11:00 +16°C° 0.9 mm 3 mps 754 mmHg 72%
    12:00 +16°C° 0.9 mm 3 mps 754 mmHg 73%
    13:00 +16°C° 0.9 mm 3 mps 754 mmHg 74%
    14:00 +16°C° 0.9 mm 3 mps 753 mmHg 74%
    15:00 +16°C° 0.9 mm 3 mps 753 mmHg 74%
    16:00 +16°C° 0.9 mm 3 mps 753 mmHg 74%
    17:00 +14°C° 0.7 mm 3 mps 753 mmHg 78%
    18:00 +14°C° 0.7 mm 2 mps 754 mmHg 82%
    19:00 +13°C° 0.7 mm 2 mps 754 mmHg 86%
    20:00 +12°C° 0.2 mm 2 mps 754 mmHg 88%
    21:00 +12°C° 0.2 mm 1 mps 754 mmHg 89%
    22:00 +11°C° 0.2 mm 1 mps 755 mmHg 90%
    23:00 +10°C° 0.1 mm 1 mps 755 mmHg 91%

    Day after tomorrow, 7 June, Sunday

    Time Temperature Precipitation Wind Pressure Humidity
    00:00 +10°C° 0.1 mm 1 mps 755 mmHg 92%
    01:00 +10°C° 0.1 mm 1 mps 755 mmHg 93%
    02:00 +9°C° 0.2 mm 1 mps 756 mmHg 93%
    03:00 +9°C° 0.2 mm 1 mps 756 mmHg 94%
    04:00 +9°C° 0.2 mm 1 mps 756 mmHg 94%
    05:00 +10°C° 0.1 mm 1 mps 756 mmHg 93%
    06:00 +10°C° 0.1 mm 1 mps 756 mmHg 93%
    07:00 +10°C° 0.1 mm 1 mps 757 mmHg 92%
    08:00 +12°C° 0.1 mm 1 mps 757 mmHg 85%
    09:00 +14°C° 0.1 mm 2 mps 757 mmHg 78%
    10:00 +15°C° 0.1 mm 2 mps 757 mmHg 71%
    11:00 +16°C° 0.8 mm 2 mps 757 mmHg 70%
    12:00 +18°C° 0.8 mm 1 mps 757 mmHg 69%
    13:00 +19°C° 0.8 mm 1 mps 757 mmHg 69%
    14:00 +18°C° 1 mm 2 mps 757 mmHg 69%
    15:00 +18°C° 1 mm 2 mps 757 mmHg 69%
    16:00 +17°C° 1 mm 2 mps 757 mmHg 69%
    17:00 +16°C° 0.3 mm 2 mps 758 mmHg 70%
    18:00 +16°C° 0.3 mm 2 mps 758 mmHg 72%
    19:00 +15°C° 0.3 mm 2 mps 758 mmHg 73%
    20:00 +13°C° 0 mm 2 mps 759 mmHg 76%
    21:00 +11°C° 0 mm 3 mps 759 mmHg 79%
    22:00 +10°C° 0 mm 3 mps 760 mmHg 82%
    23:00 +10°C° 0 mm 3 mps 760 mmHg 84%

    8 June, Monday

    Time Temperature Precipitation Wind Pressure Humidity
    00:00 +9°C° 0 mm 3 mps 760 mmHg 86%
    01:00 +9°C° 0 mm 3 mps 760 mmHg 88%
    02:00 +9°C° 0 mm 3 mps 760 mmHg 87%
    03:00 +8°C° 0 mm 3 mps 761 mmHg 87%
    04:00 +8°C° 0 mm 3 mps 761 mmHg 86%
    05:00 +9°C° 0 mm 3 mps 761 mmHg 83%
    06:00 +10°C° 0 mm 3 mps 761 mmHg 80%
    07:00 +10°C° 0 mm 3 mps 762 mmHg 77%
    08:00 +12°C° 0 mm 2 mps 762 mmHg 72%
    09:00 +14°C° 0 mm 2 mps 762 mmHg 66%
    10:00 +15°C° 0 mm 2 mps 762 mmHg 61%
    11:00 +16°C° 0 mm 2 mps 762 mmHg 57%
    12:00 +16°C° 0 mm 3 mps 762 mmHg 53%
    13:00 +17°C° 0 mm 3 mps 762 mmHg 49%
    14:00 +17°C° 0.1 mm 3 mps 762 mmHg 50%
    15:00 +17°C° 0.1 mm 3 mps 762 mmHg 52%
    16:00 +17°C° 0.1 mm 2 mps 762 mmHg 54%
    17:00 +16°C° 0 mm 2 mps 762 mmHg 57%
    18:00 +16°C° 0 mm 1 mps 762 mmHg 61%
    19:00 +15°C° 0 mm 1 mps 762 mmHg 64%
    20:00 +13°C° 0 mm 1 mps 763 mmHg 70%
    21:00 +11°C° 0 mm 1 mps 763 mmHg 75%
    22:00 +10°C° 0 mm 1 mps 763 mmHg 80%
    23:00 +9°C° 0 mm 1 mps 763 mmHg 82%

    9 June, Tuesday

    Time Temperature Precipitation Wind Pressure Humidity
    00:00 +9°C° 0 mm 1 mps 763 mmHg 84%
    01:00 +8°C° 0 mm 1 mps 762 mmHg 86%
    02:00 +9°C° 0 mm 1 mps 762 mmHg 84%
    03:00 +9°C° 0 mm 1 mps 762 mmHg 82%
    04:00 +9°C° 0 mm 1 mps 761 mmHg 81%
    05:00 +9°C° 0.8 mm 1 mps 761 mmHg 84%
    06:00 +10°C° 0.8 mm 1 mps 760 mmHg 88%
    07:00 +10°C° 0.8 mm 1 mps 760 mmHg 91%
    08:00 +10°C° 0.9 mm 1 mps 760 mmHg 92%
    09:00 +10°C° 0.9 mm 1 mps 760 mmHg 92%
    10:00 +10°C° 0.9 mm 0 mps 760 mmHg 92%
    11:00 +11°C° 0.7 mm 1 mps 760 mmHg 93%
    12:00 +11°C° 0.7 mm 1 mps 760 mmHg 93%
    13:00 +12°C° 0.7 mm 1 mps 760 mmHg 93%
    14:00 +12°C° 0.6 mm 1 mps 760 mmHg 93%
    15:00 +12°C° 0.6 mm 1 mps 760 mmHg 94%
    16:00 +13°C° 0.6 mm 1 mps 760 mmHg 95%
    17:00 +13°C° 0.1 mm 2 mps 760 mmHg 94%
    18:00 +14°C° 0.1 mm 2 mps 760 mmHg 94%
    19:00 +15°C° 0.1 mm 2 mps 760 mmHg 94%
    20:00 +14°C° 0.1 mm 2 mps 761 mmHg 94%
    21:00 +14°C° 0.1 mm 2 mps 761 mmHg 94%
    22:00 +14°C° 0.1 mm 2 mps 761 mmHg 95%
    23:00 +14°C° 0 mm 2 mps 761 mmHg 95%

    10 June, Wednesday

    Time Temperature Precipitation Wind Pressure Humidity
    00:00 +14°C° 0 mm 2 mps 761 mmHg 95%
    01:00 +13°C° 0 mm 2 mps 762 mmHg 95%
    02:00 +13°C° 0.1 mm 2 mps 762 mmHg 95%
    03:00 +13°C° 0.1 mm 2 mps 762 mmHg 95%
    04:00 +13°C° 0.1 mm 2 mps 762 mmHg 95%
    05:00 +14°C° 0.1 mm 2 mps 762 mmHg 92%
    06:00 +15°C° 0.1 mm 2 mps 763 mmHg 90%
    07:00 +14°C° 0.1 mm 3 mps 763 mmHg 87%
    08:00 +17°C° 0.1 mm 2 mps 763 mmHg 76%
    09:00 +19°C° 0.1 mm 2 mps 763 mmHg 65%
    10:00 +20°C° 0.1 mm 2 mps 763 mmHg 54%
    11:00 +21°C° 0 mm 2 mps 763 mmHg 50%
    12:00 +23°C° 0 mm 2 mps 763 mmHg 46%
    13:00 +24°C° 0 mm 2 mps 763 mmHg 41%
    14:00 +24°C° 0 mm 2 mps 762 mmHg 40%
    15:00 +25°C° 0 mm 1 mps 762 mmHg 39%
    16:00 +25°C° 0 mm 1 mps 762 mmHg 37%
    17:00 +24°C° 0 mm 2 mps 762 mmHg 44%
    18:00 +21°C° 0 mm 2 mps 761 mmHg 51%
    19:00 +19°C° 0 mm 2 mps 761 mmHg 58%
    20:00 +18°C° 0 mm 2 mps 761 mmHg 65%
    21:00 +16°C° 0 mm 2 mps 761 mmHg 71%
    22:00 +14°C° 0 mm 2 mps 761 mmHg 78%
    23:00 +14°C° 0 mm 2 mps 761 mmHg 79%
    Show more